Regional Weather Roundup
Issued by NWS

Home | Current Version | Previous Version | Text Only | Print | Product List | Glossary On
Versions: 1 2 3 4 5 6 7 8 9 10 11 12 13 14 15 16 17 18 19 20 21 22 23 24 25 26 27 28 29 30 31 32 33 34 35 36 37 38 39 40 41 42 43 44 45 46 47 48 49 50
212
ASUS43 KLMK 202202
RWRKY
KENTUCKY REGIONAL WEATHER ROUNDUP
NATIONAL WEATHER SERVICE LOUISVILLE KY
600 PM EDT FRI APR 20 2018

NOTE "FAIR" INDICATES FEW OR NO CLOUDS BELOW 12,000 FEET
WITH NO SIGNIFICANT WEATHER AND/OR OBSTRUCTIONS TO VISIBILITY.

KYZ001>023-026-027-061>063-070>075-202300-
WESTERN AND SOUTH CENTRAL KENTUCKY

CITY           SKY/WX    TMP DP  RH WIND       PRES   REMARKS
PADUCAH        FAIR      66  28  24 E7        30.33F
HENDERSON      FAIR      64  29  26 N9        30.38F
OWENSBORO      FAIR      65  21  18 CALM      30.37F
HOPKINSVILLE   FAIR      64  29  27 E3        30.33F
BOWLING GREEN  FAIR      65  29  25 E9        30.36F
GLASGOW        NOT AVBL
$$

KYZ024-025-028>034-038-045-046-053-202300-
NORTH CENTRAL KENTUCKY

CITY           SKY/WX    TMP DP  RH WIND       PRES   REMARKS
LOUISVILLE/SDF PTSUNNY   64  23  21 VRB6      30.38F
LOUISVILLE/LOU FAIR      63  25  23 VRB7      30.39F
FORT KNOX      FAIR      62  25  24 E9G17     30.38F
$$

KYZ035>037-039>044-047>052-055>060-089>105-202300-
NORTHEAST KENTUCKY

CITY           SKY/WX    TMP DP  RH WIND       PRES   REMARKS
LEXINGTON      FAIR      60  28  29 E8        30.39F
COVINGTON      FAIR      59  21  23 E8        30.40F
FRANKFORT      FAIR      62  21  20 CALM      30.38F
$$

KYZ054-064>069-076>088-106>120-202300-
SOUTHEAST KENTUCKY

CITY           SKY/WX    TMP DP  RH WIND       PRES   REMARKS
JACKSON        FAIR      62  24  23 VRB3      30.37R
LONDON         FAIR      63  20  19 NE8       30.36S
SOMERSET       NOT AVBL
MIDDLESBORO    FAIR      66  26  22 NW9       30.32S
MONTICELLO     FAIR      62  27  26 N21       30.37F
$$





USA.gov is the U.S. government's official web portal to all federal, state and local government web resources and services.